{"data":{"norad_id":62192,"intl_designator":"2024-229A","name":"STARLINK-32686","alt_names":[],"object_type":"PAYLOAD","status":"ACTIVE","operator":null,"country":"US","launch_date":"2024-12-04","launch_site_code":"AFETR","launch_vehicle":null,"mission":null,"orbit_class":"UNKNOWN","rcs_meters":null,"size_class":null,"mass_kg":null,"dimensions":null,"purposes":["comms"],"wikipedia_slug":null,"has_3d_model":false,"image_url":null,"decayed_at":null,"tle_current":{"epoch":"2026-09-21T15:42:59.418432Z","epoch_age_seconds":77868,"freshness":"FRESH","line1":"1 62192U 24229A   26264.65485438  .00005787  00000+0  21960-3 0  9999","line2":"2 62192  42.9991 240.3919 0001068 288.5080  71.5656 15.27585711100575","mean_motion":15.27585711,"eccentricity":0.0001068,"inclination_deg":42.9991,"raan_deg":240.3919,"arg_perigee_deg":288.508,"mean_anomaly_deg":71.5656,"bstar":0.0002196,"rev_number":10057,"period_min":94.266396289956,"perigee_km":482.29922245571,"apogee_km":483.76476815311,"semimajor_km":6861.1689953044,"source":"CELESTRAK","updated_at":"2026-09-22T09:00:49.538842Z"}}}